Starlink 3330

operational
NORAD ID: 50836 Int'l Des: 2022-001 Owner: SPXS Country: US Constellation: starlink
LEOCIRCULAR

About Starlink 3330

Description loading...

Live Position

Loading 3D Globe...

Upcoming Passes

Altitude History

Altitude vs Time

uPlot chart will show altitude changes over time

Two-Line Element Set

1 50836U 22001AK 26061.66288451 .00001476 00000-0 11079-3 0 9991
2 50836 53.2175 210.4445 0000821 76.9478 283.1606 15.08841311229101
Epoch: Mar 2, 2026 • Age: 30 hours

Current Status

Altitude 558.3 km
Velocity 7.58 km/s
Sub-Earth Point -51.75°S, 149.05°W
Launch Date Jan 6, 2022
Age 4.1 years
Type internet

Technical Details

Classification Payload
Mass 297.00 kg
Dry Mass 275.00 kg
Total Mass 297.00 kg
Length 0.20 m
Diameter 2.80 m
Span 9.00 m
Shape Box + pan
Manufacturer SPXS
Bus Type Starlink
Phase Status In Orbit
Owner/State SPXS/US

Large Constellations

Loading constellations...